FW5359 Weather Reports


time (UTC)temp
C
wind
direction
speed
KPH
gust
KPH
rain 1hr
cm
rain 24hr
cm
rain mn
cm
humidity
%
barometer
mb
20260903091252 26 193 1.6 6.4 0.00 0.00 0.00 86 1015.2
20260903090522 26 190 3.2 9.7 0.00 0.00 0.00 86 1015.0
20260903090022 26 165 3.2 12.9 0.00 0.00 0.00 86 1015.2
20260903085521 26 171 3.2 12.9 0.00 0.00 0.00 86 1015.2
20260903085015 26 200 3.2 9.7 0.00 0.00 0.00 86 1015.2
20260903084512 26 171 3.2 9.7 0.00 0.00 0.00 86 1015.3
20260903084012 26 172 3.2 4.8 0.00 0.00 0.00 85 1015.2
20260903083512 26 174 1.6 9.7 0.00 0.00 0.00 85 1015.2
20260903083012 26 178 1.6 9.7 0.00 0.00 0.00 84 1015.2
20260903081511 26 169 1.6 8.0 0.00 0.00 0.00 84 1015.2
20260903081007 26 170 3.2 11.3 0.00 0.00 0.00 83 1015.2
20260903080505 26 171 3.2 11.3 0.00 0.00 0.00 83 1015.2
20260903080004 26 150 4.8 14.5 0.00 0.00 0.00 83 1015.2
20260903075503 26 153 3.2 14.5 0.00 0.00 0.00 82 1014.9
20260903075004 26 167 1.6 12.9 0.00 0.00 0.00 81 1014.9
20260903074503 26 173 1.6 9.7 0.00 0.00 0.00 81 1014.9
20260903074004 26 234 1.6 9.7 0.00 0.00 0.00 80 1015.0
20260903073502 27 222 1.6 6.4 0.00 0.00 0.00 79 1015.0
20260903073233 27 225 0.0 6.4 0.00 0.00 0.00 79 1015.3
20260903072501 27 225 1.6 6.4 0.00 0.00 0.00 78 1015.2
20260903071959 27 225 3.2 14.5 0.00 0.00 0.00 78 1015.2
20260903071502 27 209 3.2 14.5 0.00 0.00 0.00 78 1015.2
20260903070955 27 178 1.6 9.7 0.00 0.00 0.00 78 1015.3
20260903070449 27 168 1.6 9.7 0.00 0.00 0.00 78 1015.3
20260903065944 27 171 3.2 8.0 0.00 0.00 0.00 78 1015.4
20260903065438 27 171 3.2 14.5 0.00 0.00 0.00 77 1015.5
20260903064932 27 171 4.8 14.5 0.00 0.00 0.00 77 1015.5
20260903064426 27 156 3.2 12.9 0.00 0.00 0.00 78 1015.5
20260903063919 27 165 1.6 9.7 0.00 0.00 0.00 78 1015.4
20260903063414 27 165 1.6 6.4 0.00 0.00 0.00 77 1015.5
20260903062913 27 165 3.2 9.7 0.00 0.00 0.00 77 1015.5
20260903062402 27 165 3.2 17.7 0.00 0.00 0.00 76 1015.5
20260903061856 27 178 3.2 17.7 0.00 0.00 0.00 76 1015.5
20260903061350 28 171 3.2 16.1 0.00 0.00 0.00 76 1015.4
20260903060843 28 178 4.8 14.5 0.00 0.00 0.00 76 1015.4
20260903060338 28 185 4.8 14.5 0.00 0.00 0.00 75 1015.4
20260903055326 28 159 3.2 11.3 0.00 0.00 0.00 74 1015.3
20260903054819 28 158 3.2 11.3 0.00 0.00 0.00 74 1015.3
20260903054313 28 163 3.2 11.3 0.00 0.00 0.00 73 1015.3
20260903053807 28 156 3.2 9.7 0.00 0.00 0.00 73 1015.3
20260903053302 28 155 3.2 9.7 0.00 0.00 0.00 73 1015.3
20260903052756 28 157 3.2 9.7 0.00 0.00 0.00 72 1015.4
20260903052250 28 161 3.2 9.7 0.00 0.00 0.00 71 1015.3
20260903052014 28 162 3.2 9.7 0.00 0.00 0.00 70 1015.3
20260903051239 29 159 3.2 9.7 0.00 0.00 0.00 69 1015.3
20260903050732 29 159 1.6 9.7 0.00 0.00 0.00 68 1015.2
20260903050229 29 159 1.6 11.3 0.00 0.00 0.00 67 1015.2
20260903045729 29 160 3.2 11.3 0.00 0.00 0.00 66 1015.0
20260903045227 30 149 3.2 11.3 0.00 0.00 0.00 65 1015.2
20260903044725 30 181 4.8 17.7 0.00 0.00 0.00 64 1015.2
20260903044224 30 175 4.8 17.7 0.00 0.00 0.00 64 1015.2
20260903043724 30 178 4.8 14.5 0.00 0.00 0.00 63 1015.0
20260903043223 30 207 4.8 17.7 0.00 0.00 0.00 63 1014.9
20260903042723 30 150 6.4 17.7 0.00 0.00 0.00 62 1015.0
20260903042220 30 184 4.8 17.7 0.00 0.00 0.00 62 1015.0
20260903041723 30 189 4.8 14.5 0.00 0.00 0.00 62 1014.8
20260903041456 30 227 3.2 12.9 0.00 0.00 0.00 62 1014.8
20260903040716 30 184 4.8 14.5 0.00 0.00 0.00 63 1014.8
20260903040218 31 122 6.4 17.7 0.00 0.00 0.00 65 1014.7
20260903035716 31 175 4.8 17.7 0.00 0.00 0.00 64 1014.7
20260903035216 31 166 3.2 16.1 0.00 0.00 0.00 64 1014.6
20260903034717 31 167 4.8 16.1 0.00 0.00 0.00 64 1014.5
20260903033715 31 188 3.2 12.9 0.00 0.00 0.00 63 1014.3
20260903033210 30 167 4.8 14.5 0.00 0.00 0.00 63 1014.3
20260903032704 30 165 3.2 14.5 0.00 0.00 0.00 61 1014.3
20260903032158 30 169 3.2 14.5 0.00 0.00 0.00 58 1014.2
20260903031652 30 147 3.2 16.1 0.00 0.00 0.00 57 1014.0
20260903031147 30 138 1.6 16.1 0.00 0.00 0.00 57 1014.0
20260903030640 30 156 0.0 0.0 0.00 0.00 0.00 57 1013.7
20260903030405 30 156 0.0 0.0 0.00 0.00 0.00 56 1013.6
20260903025628 30 156 0.0 1.6 0.00 0.00 0.00 56 1013.6
20260903025122 30 156 0.0 1.6 0.00 0.00 0.00 56 1013.5
20260903024616 30 156 0.0 0.0 0.00 0.00 0.00 56 1013.4
20260903024110 30 156 0.0 0.0 0.00 0.00 0.00 56 1013.3
20260903023604 30 156 0.0 0.0 0.00 0.00 0.00 55 1013.3
20260903023058 30 156 0.0 0.0 0.00 0.00 0.00 54 1013.2
20260903022824 30 156 0.0 1.6 0.00 0.00 0.00 55 1013.2
20260903022316 31 156 0.0 1.6 0.00 0.00 0.00 54 1013.2
20260903021540 31 156 0.0 0.0 0.00 0.00 0.00 53 1013.2
20260903020534 31 156 0.0 3.2 0.00 0.00 0.00 51 1013.0
20260903020034 31 156 0.0 3.2 0.00 0.00 0.00 51 1013.0
20260903015534 32 156 0.0 0.0 0.00 0.00 0.00 51 1013.0
20260903015035 32 156 0.0 0.0 0.00 0.00 0.00 50 1012.8
20260903014802 32 156 0.0 0.0 0.00 0.00 0.00 50 1012.8
20260903014032 32 155 0.0 0.0 0.00 0.00 0.00 48 1012.8
20260903013532 32 155 0.0 0.0 0.00 0.00 0.00 47 1012.7
20260903013032 33 155 0.0 1.6 0.00 0.00 0.00 47 1012.7
20260903012530 33 155 0.0 1.6 0.00 0.00 0.00 47 1012.7
20260903012028 33 155 0.0 0.0 0.00 0.00 0.00 46 1012.6
20260903011526 33 155 0.0 1.6 0.00 0.00 0.00 46 1012.6
20260903011024 33 155 0.0 1.6 0.00 0.00 0.00 46 1012.7
20260903010522 33 155 0.0 0.0 0.00 0.00 0.00 46 1012.6
20260903010020 34 155 0.0 1.6 0.00 0.00 0.00 45 1012.6
20260903005749 34 155 0.0 1.6 0.00 0.00 0.00 44 1012.6
20260903005016 34 155 0.0 3.2 0.00 0.00 0.00 44 1012.7
20260903004514 34 155 0.0 3.2 0.00 0.00 0.00 44 1012.7
20260903004014 34 155 0.0 4.8 0.00 0.00 0.00 44 1012.7
20260903003516 35 155 0.0 4.8 0.00 0.00 0.00 43 1012.7
20260903003016 35 155 0.0 3.2 0.00 0.00 0.00 43 1012.7
20260903002508 35 155 1.6 4.8 0.00 0.00 0.00 43 1012.7
20260903002002 35 155 1.6 8.0 0.00 0.00 0.00 42 1012.6
20260903001456 35 155 1.6 8.0 0.00 0.00 0.00 41 1012.7
20260903000952 35 155 1.6 8.0 0.00 0.00 0.00 40 1012.8
20260903000454 36 155 1.6 8.0 0.00 0.00 0.00 39 1012.7
20260902235953 36 155 1.6 8.0 0.00 0.00 0.00 39 1012.8
20260902235452 36 155 3.2 8.0 0.00 0.00 0.00 39 1012.8
20260902235223 36 155 1.6 8.0 0.00 0.00 0.00 38 1012.9
20260902234450 36 155 1.6 8.0 0.00 0.00 0.00 38 1012.9
20260902233950 36 155 1.6 8.0 0.00 0.00 0.00 38 1012.9
20260902233450 36 154 1.6 8.0 0.00 0.00 0.00 38 1012.9
20260902232950 36 211 1.6 6.4 0.00 0.00 0.00 37 1013.0
20260902232450 36 123 1.6 4.8 0.00 0.00 0.00 38 1013.0
20260902231946 36 123 3.2 6.4 0.00 0.00 0.00 38 1012.9
20260902231446 36 121 3.2 11.3 0.00 0.00 0.00 38 1012.9
20260902231217 37 126 3.2 11.3 0.00 0.00 0.00 37 1012.9
20260902230446 37 246 3.2 11.3 0.00 0.00 0.00 38 1012.9
20260902225946 37 125 1.6 6.4 0.00 0.00 0.00 38 1012.9
20260902225449 37 117 1.6 6.4 0.00 0.00 0.00 37 1013.0
20260902225219 37 114 1.6 8.0 0.00 0.00 0.00 38 1013.0
20260902224449 37 145 3.2 8.0 0.00 0.00 0.00 38 1013.0
20260902223948 37 118 1.6 8.0 0.00 0.00 0.00 38 1013.0
20260902223444 37 136 1.6 12.9 0.00 0.00 0.00 38 1012.9
20260902222942 37 179 3.2 12.9 0.00 0.00 0.00 38 1013.0
20260902221942 37 115 3.2 9.7 0.00 0.00 0.00 39 1013.0
20260902221442 37 257 3.2 9.7 0.00 0.00 0.00 37 1013.1
20260902220944 37 166 3.2 9.7 0.00 0.00 0.00 38 1013.2
20260902220437 37 177 1.6 9.7 0.00 0.00 0.00 39 1013.2
20260902215936 37 187 1.6 4.8 0.00 0.00 0.00 39 1013.2
20260902215436 37 188 3.2 11.3 0.00 0.00 0.00 39 1013.3
20260902215206 37 184 3.2 11.3 0.00 0.00 0.00 39 1013.2
20260902214438 37 138 3.2 8.0 0.00 0.00 0.00 39 1013.3
20260902213935 37 198 3.2 11.3 0.00 0.00 0.00 39 1013.3
20260902213434 37 171 3.2 11.3 0.00 0.00 0.00 39 1013.3
20260902212932 37 262 3.2 9.7 0.00 0.00 0.00 40 1013.3
20260902212431 37 171 4.8 9.7 0.00 0.00 0.00 38 1013.4
20260902211932 37 162 3.2 9.7 0.00 0.00 0.00 39 1013.4
20260902211432 37 142 3.2 9.7 0.00 0.00 0.00 41 1013.4
20260902210931 37 175 3.2 9.7 0.00 0.00 0.00 40 1013.5
20260902210425 37 275 1.6 8.0 0.00 0.00 0.00 41 1013.6
20260902205919 37 152 1.6 14.5 0.00 0.00 0.00 42 1013.6
20260902205413 36 155 3.2 14.5 0.00 0.00 0.00 42 1013.7
20260902205138 37 70 3.2 12.9 0.00 0.00 0.00 41 1013.8
20260902204632 37 150 3.2 12.9 0.00 0.00 0.00 41 1013.9
20260902203854 37 204 3.2 12.9 0.00 0.00 0.00 43 1013.9
20260902203348 37 156 4.8 14.5 0.00 0.00 0.00 42 1014.0
20260902202843 37 227 4.8 14.5 0.00 0.00 0.00 42 1014.0
20260902202337 37 169 3.2 14.5 0.00 0.00 0.00 42 1014.2
20260902201831 36 138 3.2 17.7 0.00 0.00 0.00 45 1014.2
20260902201325 36 102 4.8 17.7 0.00 0.00 0.00 45 1014.3
20260902200819 36 90 3.2 11.3 0.00 0.00 0.00 45 1014.5
20260902200314 36 119 3.2 11.3 0.00 0.00 0.00 45 1014.5
20260902195807 36 155 3.2 11.3 0.00 0.00 0.00 44 1014.7
20260902195301 36 167 3.2 11.3 0.00 0.00 0.00 45 1014.8
20260902195026 36 348 3.2 9.7 0.00 0.00 0.00 44 1014.8
20260902194249 36 121 3.2 9.7 0.00 0.00 0.00 43 1014.9
20260902193743 36 123 4.8 11.3 0.00 0.00 0.00 44 1015.0
20260902193237 36 113 4.8 11.3 0.00 0.00 0.00 44 1015.0
20260902192731 36 136 3.2 11.3 0.00 0.00 0.00 45 1015.2
20260902192225 36 163 3.2 12.9 0.00 0.00 0.00 43 1015.2
20260902191719 36 159 4.8 12.9 0.00 0.00 0.00 42 1015.3
20260902191213 36 251 3.2 12.9 0.00 0.00 0.00 42 1015.4
20260902190939 36 175 1.6 8.0 0.00 0.00 0.00 43 1015.5
20260902190201 36 217 3.2 8.0 0.00 0.00 0.00 44 1015.6
20260902185655 36 213 3.2 12.9 0.00 0.00 0.00 45 1015.7
20260902185149 36 211 3.2 12.9 0.00 0.00 0.00 46 1015.7
20260902184643 35 107 3.2 11.3 0.00 0.00 0.00 47 1015.8
20260902184137 35 152 3.2 11.3 0.00 0.00 0.00 48 1015.9
20260902183631 35 209 3.2 11.3 0.00 0.00 0.00 48 1016.0
20260902183125 35 163 4.8 11.3 0.00 0.00 0.00 49 1016.1
20260902182113 35 150 3.2 11.3 0.00 0.00 0.00 50 1016.3
20260902181606 35 163 3.2 11.3 0.00 0.00 0.00 51 1016.3
20260902181101 35 217 1.6 9.7 0.00 0.00 0.00 53 1016.4
20260902180827 35 225 3.2 9.7 0.00 0.00 0.00 53 1016.5
20260902180048 34 149 4.8 16.1 0.00 0.00 0.00 54 1016.6
20260902175543 34 164 4.8 16.1 0.00 0.00 0.00 55 1016.7
20260902175036 34 164 3.2 11.3 0.00 0.00 0.00 55 1016.8
20260902174803 34 184 3.2 12.9 0.00 0.00 0.00 55 1016.9
20260902174024 33 192 4.8 17.7 0.00 0.00 0.00 55 1017.0
20260902173519 33 148 4.8 17.7 0.00 0.00 0.00 56 1017.0
20260902173013 33 221 4.8 11.3 0.00 0.00 0.00 57 1017.0
20260902172507 33 176 4.8 11.3 0.00 0.00 0.00 57 1017.2
20260902172001 34 150 3.2 11.3 0.00 0.00 0.00 56 1017.1
20260902171455 33 231 1.6 8.0 0.00 0.00 0.00 59 1017.2
20260902170949 33 234 1.6 8.0 0.00 0.00 0.00 58 1017.3
20260902170443 33 237 3.2 11.3 0.00 0.00 0.00 57 1017.3
20260902165936 33 236 3.2 11.3 0.00 0.00 0.00 58 1017.4
20260902165431 33 242 3.2 9.7 0.00 0.00 0.00 58 1017.4
20260902164925 33 228 3.2 9.7 0.00 0.00 0.00 60 1017.4
20260902164419 33 196 1.6 8.0 0.00 0.00 0.00 60 1017.5
20260902164144 32 242 3.2 12.9 0.00 0.00 0.00 61 1017.5
20260902163412 32 146 3.2 12.9 0.00 0.00 0.00 62 1017.6
20260902162913 32 261 3.2 8.0 0.00 0.00 0.00 62 1017.5
20260902162412 32 229 3.2 11.3 0.00 0.00 0.00 63 1017.5
20260902161913 32 263 3.2 11.3 0.00 0.00 0.00 63 1017.6
20260902161413 32 230 1.6 9.7 0.00 0.00 0.00 64 1017.5
20260902160913 32 267 1.6 9.7 0.00 0.00 0.00 67 1017.5
20260902160413 31 185 1.6 6.4 0.00 0.00 0.00 68 1017.6
20260902155913 31 184 3.2 8.0 0.00 0.00 0.00 69 1017.7
20260902155413 31 221 1.6 8.0 0.00 0.00 0.00 68 1017.7
20260902154913 31 296 3.2 6.4 0.00 0.00 0.00 68 1017.6
20260902153913 30 213 1.6 6.4 0.00 0.00 0.00 70 1017.7
20260902153413 30 213 3.2 6.4 0.00 0.00 0.00 71 1017.7
20260902152913 30 213 1.6 6.4 0.00 0.00 0.00 73 1017.7
20260902152412 30 213 1.6 6.4 0.00 0.00 0.00 72 1017.7
20260902151915 29 304 1.6 9.7 0.00 0.00 0.00 74 1017.7
20260902151411 29 278 3.2 9.7 0.00 0.00 0.00 75 1017.7
20260902150913 29 238 3.2 9.7 0.00 0.00 0.00 75 1017.7
20260902150406 28 205 3.2 9.7 0.00 0.00 0.00 75 1017.7
20260902145355 28 240 3.2 12.9 0.00 0.00 0.00 76 1017.8
20260902144850 28 243 3.2 8.0 0.00 0.00 0.00 76 1017.8
20260902144342 28 250 3.2 6.4 0.00 0.00 0.00 78 1017.8
20260902143837 28 247 3.2 6.4 0.00 0.00 0.00 78 1017.9
20260902143331 28 238 3.2 6.4 0.00 0.00 0.00 79 1017.8
20260902143055 28 241 3.2 6.4 0.00 0.00 0.00 79 1017.7
20260902142550 28 251 1.6 6.4 0.00 0.00 0.00 80 1017.7
20260902142044 27 182 1.6 4.8 0.00 0.00 0.00 80 1017.7
20260902141307 27 176 1.6 4.8 0.00 0.00 0.00 81 1017.7
20260902140800 27 176 1.6 4.8 0.00 0.00 0.00 82 1017.6
20260902140254 27 176 0.0 4.8 0.00 0.00 0.00 82 1017.7
20260902135748 27 176 0.0 0.0 0.00 0.00 0.00 83 1017.7
20260902135243 26 176 0.0 0.0 0.00 0.00 0.00 84 1017.6
20260902134736 26 176 0.0 0.0 0.00 0.00 0.00 84 1017.5
20260902134231 26 176 0.0 0.0 0.00 0.00 0.00 85 1017.5
20260902133725 26 176 0.0 0.0 0.00 0.00 0.00 85 1017.5
20260902133219 26 176 0.0 0.0 0.00 0.00 0.00 85 1017.5
20260902132712 25 176 0.0 0.0 0.00 0.00 0.00 85 1017.5
20260902132207 25 176 0.0 0.0 0.00 0.00 0.00 85 1017.5
20260902131701 25 176 0.0 0.0 0.00 0.00 0.00 85 1017.4
20260902130649 24 176 0.0 0.0 0.00 0.00 0.00 86 1017.4
20260902130143 24 176 0.0 0.0 0.00 0.00 0.00 87 1017.3
20260902125637 23 176 0.0 0.0 0.00 0.00 0.00 87 1017.3
20260902125401 23 176 0.0 0.0 0.00 0.00 0.00 86 1017.2
20260902124625 23 176 0.0 0.0 0.00 0.00 0.00 85 1017.2
20260902124119 23 176 0.0 0.0 0.00 0.00 0.00 85 1017.2
20260902123612 23 176 0.0 0.0 0.00 0.00 0.00 85 1017.1
20260902123106 24 176 0.0 0.0 0.00 0.00 0.00 86 1017.0
20260902122600 24 176 0.0 0.0 0.00 0.00 0.00 86 1016.9
20260902122054 23 176 0.0 0.0 0.00 0.00 0.00 85 1016.8
20260902121549 23 176 0.0 0.0 0.00 0.00 0.00 84 1016.9
20260902121043 23 176 0.0 0.0 0.00 0.00 0.00 84 1016.9
20260902120537 24 176 0.0 0.0 0.00 0.00 0.00 85 1016.8
20260902120030 24 176 0.0 0.0 0.00 0.00 0.00 86 1016.9
20260902115524 24 176 0.0 0.0 0.00 0.00 0.00 86 1016.9
20260902115250 24 176 0.0 0.0 0.00 0.00 0.00 85 1016.9
20260902114743 24 176 0.0 0.0 0.00 0.00 0.00 86 1016.8
20260902114007 24 176 0.0 0.0 0.00 0.00 0.00 86 1016.8
20260902113500 24 176 0.0 0.0 0.00 0.00 0.00 85 1016.8
20260902112954 24 176 0.0 0.0 0.00 0.00 0.00 85 1016.8
20260902112449 24 176 0.0 0.0 0.00 0.00 0.00 85 1016.8
20260902111943 24 176 0.0 0.0 0.00 0.00 0.00 85 1016.8
20260902111437 24 176 0.0 0.0 0.00 0.00 0.00 84 1016.8
20260902110931 24 176 0.0 0.0 0.00 0.00 0.00 84 1016.9
20260902110424 24 176 0.0 0.0 0.00 0.00 0.00 84 1016.7
20260902105918 24 176 0.0 0.0 0.00 0.00 0.00 84 1016.7
20260902105412 24 176 0.0 0.0 0.00 0.00 0.00 83 1016.6
20260902104906 24 176 0.0 0.0 0.00 0.00 0.00 83 1016.6
20260902104401 24 176 0.0 0.0 0.00 0.00 0.00 83 1016.7
20260902103620 24 176 0.0 0.0 0.00 0.00 0.00 83 1016.7
20260902102842 24 176 0.0 0.0 0.00 0.00 0.00 83 1016.7
20260902102337 24 176 0.0 0.0 0.00 0.00 0.00 82 1016.7
20260902101831 24 176 0.0 0.0 0.00 0.00 0.00 82 1016.7
20260902101325 24 176 0.0 0.0 0.00 0.00 0.00 82 1016.6
20260902101049 24 176 0.0 0.0 0.00 0.00 0.00 81 1016.6
20260902100313 24 176 0.0 0.0 0.00 0.00 0.00 81 1016.7
20260902095805 24 176 0.0 0.0 0.00 0.00 0.00 81 1016.7
20260902095307 24 176 0.0 0.0 0.00 0.00 0.00 80 1016.8
20260902095034 24 176 0.0 0.0 0.00 0.00 0.00 79 1016.8
20260902094304 25 176 0.0 0.0 0.00 0.00 0.00 78 1016.8
20260902094035 25 176 0.0 0.0 0.00 0.00 0.00 79 1016.8
20260902093303 25 176 0.0 0.0 0.00 0.00 0.00 79 1016.7
20260902092802 25 176 0.0 0.0 0.00 0.00 0.00 79 1016.7
20260902092305 25 176 0.0 0.0 0.00 0.00 0.00 79 1016.7
20260902091802 25 176 0.0 0.0 0.00 0.00 0.00 79 1016.8